• Join FlightAware (Why Join?)
  • Login
  • US Flag 
04:22PM EDT


 

Airport Tracker/Info


-or-


 

Live Flight TrackerFlight Track Log ✈ N143DE ✈ 06-Jul-2013 ✈ KTRI - KMYR

Flight Track Log - Related Links

Times and Time Zones

All times are in EDT time to prevent confusion due to time zone crossing. See the N143DE flight status page for this flight to view local times or setup timezone preferences in your user account.

Time Position Orientation Groundspeed Altitude Reporting Facility
EDT Latitude Longitude Course Direction KTS MPH feet Rate Location/Type
02:08PM 35.7478 -81.5697 133° Southeast 208 239 25,100  Level Atlanta Center
02:09PM 35.7025 -81.5094 133° Southeast 224 258 25,100  Level Atlanta Center
02:10PM 35.6619 -81.4597 135° Southeast 231 266 25,100 -60 Level Atlanta Center
02:11PM 35.6147 -81.4000 134° Southeast 236 272 25,000 -60 Descending Atlanta Center
02:12PM 35.5656 -81.3403 135° Southeast 236 272 25,000  Level Atlanta Center
02:13PM 35.5097 -81.2706 135° Southeast 242 278 25,000  Level Atlanta Center
02:14PM 35.4667 -81.2083 130° Southeast 242 278 25,000  Level Atlanta Center
02:15PM 35.4192 -81.1464 133° Southeast 242 278 25,000  Level Atlanta Center
02:16PM 35.3761 -81.0917 134° Southeast 242 278 25,000  Level Atlanta Center
02:17PM 35.3289 -81.0297 133° Southeast 242 278 25,000  Level Atlanta Center
02:18PM 35.2814 -80.9731 136° Southeast 242 278 25,000  Level Atlanta Center
02:19PM 35.2339 -80.9111 133° Southeast 242 278 25,000  Level Atlanta Center
02:20PM 35.1867 -80.8519 134° Southeast 242 278 25,000  Level Atlanta Center
02:21PM 35.1392 -80.7903 133° Southeast 242 278 25,000  Level Atlanta Center
02:22PM 35.0497 -80.6789 134° Southeast 237 273 25,000  Level Jacksonville Center
02:23PM 35.0028 -80.6194 134° Southeast 237 273 25,000  Level Jacksonville Center
02:24PM 34.9558 -80.5572 133° Southeast 242 278 25,000  Level Jacksonville Center
02:25PM 34.9111 -80.5056 137° Southeast 242 278 25,000  Level Jacksonville Center
02:26PM 34.8642 -80.4458 134° Southeast 248 285 25,000  Level Jacksonville Center
02:27PM 34.8169 -80.3842 133° Southeast 248 285 25,000  Level Jacksonville Center
02:28PM 34.7700 -80.3272 135° Southeast 243 280 25,000 -300 Level Jacksonville Center
02:29PM 34.7208 -80.2658 134° Southeast 249 287 24,500 -660 Descending Jacksonville Center
02:30PM 34.6694 -80.2017 134° Southeast 254 292 23,800 -660 Descending Jacksonville Center
02:31PM 34.6178 -80.1300 131° Southeast 266 306 23,200 -420 Descending Jacksonville Center
02:32PM 34.5683 -80.0711 136° Southeast 266 306 23,000 -120 Descending Jacksonville Center
02:33PM 34.5189 -80.0072 133° Southeast 266 306 23,000  Level Jacksonville Center
02:34PM 34.4697 -79.9511 137° Southeast 259 298 23,000  Level Jacksonville Center
02:35PM 34.4225 -79.8922 134° Southeast 249 287 23,000  Level Jacksonville Center
02:36PM 34.3753 -79.8333 134° Southeast 244 281 23,000  Level Jacksonville Center
02:37PM 34.3281 -79.7797 137° Southeast 244 281 23,000 -900 Level Jacksonville Center
02:38PM 34.2742 -79.7164 136° Southeast 255 293 21,300 480 Descending Jacksonville Center
02:39PM 34.2244 -79.6503 132° Southeast 255 293 24,000 -1,680 Climbing Jacksonville Center
02:40PM 34.1725 -79.5769 131° Southeast 273 314 18,000 -4,020 Descending Jacksonville Center
02:41PM 34.1228 -79.5136 133° Southeast 268 308 16,000 -2,520 Descending Jacksonville Center
02:42PM 34.0708 -79.4431 132° Southeast 269 310 13,100 -2,760 Descending Jacksonville Center
02:43PM 34.0128 -79.3728 135° Southeast 269 310 10,600 -2,280 Descending Jacksonville Center
02:44PM 33.9650 -79.3069 131° Southeast 263 303 8,600 -2,100 Descending Jacksonville Center
02:45PM 33.9275 -79.2383 123° Southeast 258 297 6,500 -2,100 Descending Jacksonville Center
02:46PM 33.8942 -79.1722 121° Southeast 239 275 4,500 -1,800 Descending Jacksonville Center
02:47PM 33.8611 -79.1111 123° Southeast 228 262 2,900 -1,200 Descending Jacksonville Center
02:48PM 33.8325 -79.0575 123° Southeast 205 236 2,200 -360 Descending Jacksonville Center
02:49PM 33.8017 -79.0064 126° Southeast 205 236 2,200 10,860 Level Jacksonville Center
02:50PM 33.7686 -78.9528 127° Southeast 205 236 24,000 21,780 Climbing Jacksonville Center
02:52PM 33.7023 -78.9293 164° South  Level FlightAware Approximate
02:59PM 33.6797 -78.9283 134° Southeast  Level Estimated